DL9BGG-13 Weather Reports


time (UTC)temp
C
wind
direction
speed
KPH
gust
KPH
rain 1hr
cm
rain 24hr
cm
rain mn
cm
humidity
%
barometer
mb
20260901141323 20 247 6.4 0.0 0.00 1.14 0.00 65 1062.9
20260901141218 20 315 9.7 0.0 0.00 1.14 0.00 65 1062.9
20260901141102 20 292 14.5 0.0 0.00 1.14 0.00 64 1062.9
20260901140957 20 315 8.0 0.0 0.00 1.14 0.00 64 1062.9
20260901140846 20 315 12.9 0.0 0.00 1.14 0.00 63 1062.9
20260901140740 20 337 8.0 0.0 0.00 1.14 0.00 63 1062.8
20260901140620 20 315 9.7 0.0 0.00 1.14 0.00 63 1062.9
20260901140515 20 292 17.7 0.0 0.00 1.14 0.00 63 1062.9
20260901140408 20 292 4.8 0.0 0.00 1.14 0.00 63 1062.9
20260901140255 20 135 0.0 0.0 0.00 1.14 0.00 63 1062.8
20260901140150 20 270 12.9 0.0 0.00 1.14 0.00 63 1062.8
20260901140028 21 270 20.9 0.0 0.00 1.14 0.00 62 1062.8
20260901135908 21 292 11.3 0.0 0.00 1.14 0.00 62 1062.9
20260901135802 21 292 14.5 0.0 0.00 1.14 0.00 62 1062.8
20260901135650 21 292 16.1 0.0 0.00 1.14 0.00 62 1062.9
20260901135546 21 315 9.7 0.0 0.00 1.14 0.00 62 1062.9
20260901135441 21 292 19.3 0.0 0.00 1.14 0.00 62 1062.7
20260901135335 21 292 12.9 0.0 0.00 1.14 0.00 63 1062.8
20260901135231 21 270 9.7 0.0 0.00 1.14 0.00 63 1062.9
20260901135126 21 247 8.0 0.0 0.00 1.14 0.00 62 1062.8
20260901135010 20 292 3.2 0.0 0.00 1.14 0.00 62 1062.8
20260901134849 20 292 0.0 0.0 0.00 1.14 0.00 61 1062.8
20260901134720 20 292 19.3 0.0 0.00 1.14 0.00 62 1062.8
20260901134607 20 292 30.6 0.0 0.00 1.14 0.00 62 1062.7
20260901134456 20 292 8.0 0.0 0.00 1.14 0.00 62 1062.7
20260901134352 20 315 16.1 0.0 0.00 1.14 0.00 62 1062.8
20260901134246 20 337 14.5 0.0 0.00 1.14 0.00 61 1062.8
20260901134133 20 292 6.4 0.0 0.00 1.14 0.00 61 1062.7
20260901134018 20 315 29.0 0.0 0.00 1.14 0.00 61 1062.7
20260901133905 20 270 12.9 0.0 0.00 1.14 0.00 61 1062.7
20260901133744 20 315 14.5 0.0 0.00 1.14 0.00 62 1062.7
20260901133630 20 270 24.1 0.0 0.00 1.14 0.00 63 1062.7
20260901133517 20 270 11.3 0.0 0.00 1.14 0.00 63 1062.6
20260901133413 20 337 8.0 0.0 0.00 1.14 0.00 62 1062.6
20260901133307 20 292 11.3 0.0 0.00 1.14 0.00 63 1062.8
20260901133154 20 270 9.7 0.0 0.00 1.14 0.00 63 1062.6
20260901133043 20 315 6.4 0.0 0.00 1.14 0.00 63 1062.6
20260901132928 20 0 9.7 0.0 0.00 1.14 0.00 63 1062.6
20260901132815 20 270 14.5 0.0 0.00 1.14 0.00 63 1062.7
20260901132653 20 247 24.1 0.0 0.00 1.14 0.00 63 1062.6
20260901132531 20 270 9.7 0.0 0.00 1.14 0.00 63 1062.7
20260901132410 21 292 12.9 0.0 0.00 1.14 0.00 63 1062.7
20260901132250 21 247 12.9 0.0 0.00 1.14 0.00 63 1062.7
20260901132145 21 247 19.3 0.0 0.00 1.14 0.00 63 1062.7
20260901132025 20 292 9.7 0.0 0.00 1.14 0.00 64 1062.6
20260901131910 20 270 8.0 0.0 0.00 1.14 0.00 64 1062.6
20260901131757 20 292 14.5 0.0 0.00 1.14 0.00 64 1062.6
20260901131638 20 292 11.3 0.0 0.00 1.14 0.00 65 1062.7
20260901131533 20 270 0.0 0.0 0.00 1.14 0.00 65 1062.6
20260901131426 20 0 0.0 0.0 0.00 1.14 0.00 64 1062.6
20260901131306 20 292 6.4 0.0 0.00 1.14 0.00 65 1062.7
20260901131200 20 315 16.1 0.0 0.00 1.14 0.00 65 1062.7
20260901131055 20 315 8.0 0.0 0.00 1.14 0.00 65 1062.7
20260901130942 20 292 16.1 0.0 0.00 1.14 0.00 65 1062.6
20260901130830 20 270 9.7 0.0 0.00 1.14 0.00 64 1062.6
20260901130726 20 270 0.0 0.0 0.00 1.14 0.00 64 1062.5
20260901130610 20 0 6.4 0.0 0.00 1.14 0.00 64 1062.6
20260901130456 21 292 25.7 0.0 0.00 1.14 0.00 63 1062.6
20260901130345 21 270 17.7 0.0 0.00 1.14 0.00 63 1062.6
20260901130230 21 315 20.9 0.0 0.00 1.14 0.00 62 1062.6
20260901130109 21 292 11.3 0.0 0.00 1.14 0.00 61 1062.5
20260901125956 21 337 0.0 0.0 0.00 1.14 0.00 61 1062.5
20260901125843 21 315 8.0 0.0 0.00 1.14 0.00 61 1062.6
20260901125722 21 315 17.7 0.0 0.00 1.14 0.00 62 1062.5
20260901125553 21 315 22.5 0.0 0.00 1.14 0.00 62 1062.6
20260901125441 21 292 16.1 0.0 0.00 1.14 0.00 63 1062.5
20260901125312 21 315 9.7 0.0 0.00 1.14 0.00 62 1062.6
20260901125152 21 315 4.8 0.0 0.00 1.14 0.00 62 1062.5
20260901125037 21 270 12.9 0.0 0.00 1.14 0.00 62 1062.5
20260901124915 21 225 9.7 0.0 0.00 1.14 0.00 62 1062.5
20260901124755 21 292 8.0 0.0 0.00 1.14 0.00 61 1062.6
20260901124648 21 292 19.3 0.0 0.00 1.14 0.00 61 1062.5
20260901124528 21 315 14.5 0.0 0.00 1.14 0.00 60 1062.5
20260901124421 21 292 6.4 0.0 0.00 1.14 0.00 60 1062.5
20260901124302 21 0 17.7 0.0 0.00 1.14 0.00 60 1062.4
20260901124155 21 292 17.7 0.0 0.00 1.14 0.00 60 1062.5
20260901124043 21 315 17.7 0.0 0.00 1.14 0.00 60 1062.5
20260901123930 21 315 6.4 0.0 0.00 1.14 0.00 59 1062.5
20260901123825 21 337 4.8 0.0 0.00 1.14 0.00 58 1062.6
20260901123711 21 292 12.9 0.0 0.00 1.14 0.00 58 1062.5
20260901123558 21 315 20.9 0.0 0.00 1.14 0.00 58 1062.6
20260901123445 22 292 9.7 0.0 0.00 1.14 0.00 59 1062.5
20260901123332 22 270 19.3 0.0 0.00 1.14 0.00 60 1062.5
20260901123218 22 292 16.1 0.0 0.00 1.14 0.00 59 1062.5
20260901123107 22 292 11.3 0.0 0.00 1.14 0.00 59 1062.6
20260901123001 22 292 4.8 0.0 0.00 1.14 0.00 58 1062.5
20260901122839 22 247 19.3 0.0 0.00 1.14 0.00 58 1062.5
20260901122720 22 292 6.4 0.0 0.00 1.14 0.00 57 1062.5
20260901122608 22 247 16.1 0.0 0.00 1.14 0.00 58 1062.5
20260901122500 22 270 11.3 0.0 0.00 1.14 0.00 57 1062.5
20260901122347 22 315 9.7 0.0 0.00 1.14 0.00 56 1062.6
20260901122241 22 337 9.7 0.0 0.00 1.14 0.00 56 1062.6
20260901122115 22 315 24.1 0.0 0.00 1.14 0.00 57 1062.5
20260901122007 22 292 20.9 0.0 0.00 1.14 0.00 56 1062.6
20260901121841 22 270 24.1 0.0 0.00 1.14 0.00 56 1062.5
20260901121735 22 315 8.0 0.0 0.00 1.14 0.00 56 1062.6
20260901121629 22 292 17.7 0.0 0.00 1.14 0.00 57 1062.5
20260901121524 22 292 12.9 0.0 0.00 1.14 0.00 57 1062.6
20260901121410 22 292 0.0 0.0 0.00 1.14 0.00 58 1062.5
20260901121257 22 247 11.3 0.0 0.00 1.14 0.00 57 1062.5
20260901121152 22 247 14.5 0.0 0.00 1.14 0.00 58 1062.5
20260901121039 22 0 8.0 0.0 0.00 1.14 0.00 59 1062.5
20260901120918 22 292 11.3 0.0 0.00 1.14 0.00 60 1062.5
20260901120759 22 270 9.7 0.0 0.00 1.14 0.00 61 1062.5
20260901120654 22 270 9.7 0.0 0.00 1.14 0.00 61 1062.5
20260901120543 22 292 6.4 0.0 0.00 1.14 0.00 61 1062.5
20260901120437 22 292 9.7 0.0 0.00 1.14 0.00 61 1062.5
20260901120326 22 247 20.9 0.0 0.00 1.14 0.00 62 1062.5
20260901120218 22 315 14.5 0.0 0.00 1.14 0.00 62 1062.5
20260901120103 22 292 14.5 0.0 0.00 1.14 0.00 62 1062.5
20260901115935 22 315 8.0 0.0 0.00 1.14 0.00 62 1062.4
20260901115813 22 337 11.3 0.0 0.00 1.14 0.00 62 1062.6
20260901115653 22 270 3.2 0.0 0.00 1.14 0.00 63 1062.5
20260901115540 22 337 8.0 0.0 0.00 1.14 0.00 63 1062.4
20260901115436 22 292 8.0 0.0 0.00 1.14 0.00 63 1062.4
20260901115330 22 270 24.1 0.0 0.00 1.14 0.00 62 1062.4
20260901115210 22 315 9.7 0.0 0.00 1.14 0.00 62 1062.4
20260901115104 22 315 9.7 0.0 0.00 1.14 0.00 62 1062.5
20260901114951 22 337 9.7 0.0 0.00 1.14 0.00 62 1062.5
20260901114838 22 292 14.5 0.0 0.00 1.14 0.00 62 1062.5
20260901114732 22 337 19.3 0.0 0.00 1.14 0.00 62 1062.4
20260901114618 22 292 9.7 0.0 0.00 1.14 0.00 62 1062.4
20260901114458 22 315 12.9 0.0 0.00 1.14 0.00 63 1062.4
20260901114336 22 292 11.3 0.0 0.00 1.14 0.00 63 1062.3
20260901114225 22 315 6.4 0.0 0.00 1.14 0.00 64 1062.3
20260901114118 22 337 11.3 0.0 0.00 1.14 0.00 66 1062.4
20260901113958 21 0 4.8 0.0 0.00 1.14 0.00 65 1062.3
20260901113853 21 270 6.4 0.0 0.00 1.14 0.00 65 1062.4
20260901113732 21 315 19.3 0.0 0.00 1.14 0.00 65 1062.4
20260901113617 21 315 8.0 0.0 0.00 1.14 0.00 65 1062.4
20260901113503 21 0 6.4 0.0 0.00 1.14 0.00 65 1062.4
20260901113344 21 292 9.7 0.0 0.00 1.14 0.00 66 1062.4
20260901113237 21 270 20.9 0.0 0.00 1.14 0.00 68 1062.4
20260901113051 20 337 183.5 0.0 0.00 1.14 0.00 70 1062.4
20260901112439 20 337 4.8 0.0 0.00 1.14 0.00 70 1062.3
20260901112333 20 315 11.3 0.0 0.00 1.14 0.00 70 1062.2
20260901112211 20 337 6.4 0.0 0.00 1.14 0.00 70 1062.2
20260901112058 20 292 6.4 0.0 0.00 1.14 0.00 70 1062.2
20260901111953 20 337 9.7 0.0 0.00 1.14 0.00 71 1062.1
20260901111743 19 247 183.5 0.0 0.00 1.14 0.00 74 1062.1
20260901111129 19 247 183.5 0.0 0.05 1.14 0.00 75 1062.1
20260901110526 19 247 183.5 0.0 0.05 1.14 0.00 78 1062.0
20260901105902 18 247 183.5 0.0 0.05 1.14 0.00 81 1062.0
20260901105247 18 247 183.5 0.0 0.05 1.14 0.00 83 1061.9
20260901104601 17 247 183.5 0.0 0.10 1.14 0.00 86 1061.8
20260901103931 17 247 183.5 0.0 0.15 1.14 0.00 88 1061.9
20260901103317 16 247 183.5 0.0 0.15 1.14 0.00 90 1061.8
20260901102658 16 247 183.5 0.0 0.20 1.14 0.00 91 1061.7
20260901102049 16 247 183.5 0.0 0.20 1.14 0.00 91 1061.7
20260901101428 16 247 9.7 0.0 0.15 1.09 0.00 91 1061.6
20260901101322 16 202 8.0 0.0 0.15 1.09 0.00 91 1061.5
20260901101145 16 292 14.5 0.0 0.15 1.09 0.00 91 1061.5
20260901100959 16 270 8.0 0.0 0.15 1.09 0.00 91 1061.5
20260901100852 16 247 9.7 0.0 0.15 1.09 0.00 91 1061.5
20260901100738 16 270 14.5 0.0 0.15 1.09 0.00 91 1061.5
20260901100617 16 225 4.8 0.0 0.15 1.09 0.00 91 1061.5
20260901100505 16 292 6.4 0.0 0.15 1.09 0.00 91 1061.5
20260901100357 16 315 22.5 0.0 0.15 1.09 0.00 90 1061.5
20260901100246 16 225 22.5 0.0 0.15 1.09 0.00 90 1061.5
20260901100139 16 270 20.9 0.0 0.15 1.09 0.00 90 1061.5
20260901100025 16 247 1.6 0.0 0.15 1.09 0.00 90 1061.5
20260901095913 16 247 6.4 0.0 0.15 1.09 0.00 91 1061.5
20260901095759 16 247 16.1 0.0 0.15 1.09 0.00 91 1061.5
20260901095652 16 270 16.1 0.0 0.15 1.09 0.00 91 1061.5
20260901095523 16 247 14.5 0.0 0.15 1.09 0.00 90 1061.5
20260901095411 16 247 19.3 0.0 0.15 1.09 0.00 90 1061.4
20260901095306 16 247 24.1 0.0 0.15 1.09 0.00 90 1061.5
20260901095159 16 292 9.7 0.0 0.15 1.09 0.00 90 1061.4
20260901095053 16 292 9.7 0.0 0.10 1.04 0.00 90 1061.4
20260901094947 16 270 20.9 0.0 0.10 1.04 0.00 90 1061.5
20260901094827 16 337 12.9 0.0 0.10 1.04 0.00 90 1061.4
20260901094720 16 270 17.7 0.0 0.10 1.04 0.00 90 1061.3
20260901094606 16 225 9.7 0.0 0.10 1.04 0.00 90 1061.4
20260901094453 16 292 12.9 0.0 0.10 1.04 0.00 90 1061.3
20260901094342 16 247 11.3 0.0 0.05 0.99 0.00 89 1061.3
20260901094230 16 270 17.7 0.0 0.05 0.99 0.00 89 1061.3
20260901094104 16 292 20.9 0.0 0.05 0.99 0.00 89 1061.4
20260901093950 16 292 19.3 0.0 0.05 0.99 0.00 89 1061.4
20260901093838 16 247 8.0 0.0 0.05 0.99 0.00 88 1061.3
20260901093725 16 225 9.7 0.0 0.05 0.99 0.00 88 1061.3
20260901093612 16 247 8.0 0.0 0.05 0.99 0.00 88 1061.3
20260901093506 16 157 0.0 0.0 0.00 0.94 0.00 87 1061.4
20260901093346 16 270 8.0 0.0 0.00 0.94 0.00 87 1061.3
20260901093241 16 247 17.7 0.0 0.00 0.94 0.00 87 1061.3
20260901093135 16 270 14.5 0.0 0.00 0.94 0.00 87 1061.4
20260901093022 17 247 9.7 0.0 0.00 0.94 0.00 86 1061.4
20260901092902 17 270 16.1 0.0 0.00 0.94 0.00 86 1061.4
20260901092740 17 247 12.9 0.0 0.00 0.94 0.00 85 1061.4
20260901092618 17 270 9.7 0.0 0.00 0.94 0.00 84 1061.4
20260901092449 17 270 8.0 0.0 0.00 0.94 0.00 82 1061.4
20260901092328 17 315 9.7 0.0 0.00 0.94 0.00 82 1061.5
20260901092216 17 270 9.7 0.0 0.00 0.94 0.00 81 1061.4
20260901092100 18 292 8.0 0.0 0.00 0.94 0.00 80 1061.5
20260901091954 18 315 9.7 0.0 0.00 0.94 0.00 79 1061.5
20260901091848 18 315 14.5 0.0 0.00 0.94 0.00 78 1061.4
20260901091719 18 135 0.0 0.0 0.00 0.94 0.00 77 1061.3
20260901091614 19 315 14.5 0.0 0.00 0.94 0.00 76 1061.3
20260901091500 19 292 14.5 0.0 0.00 0.94 0.00 75 1061.3
20260901091333 19 270 24.1 0.0 0.00 0.94 0.00 74 1061.3
20260901091226 20 292 16.1 0.0 0.00 0.94 0.00 72 1061.3
20260901091113 20 292 30.6 0.0 0.00 0.94 0.00 71 1061.3
20260901091001 20 247 29.0 0.0 0.00 0.94 0.00 71 1061.3
20260901090856 20 292 8.0 0.0 0.00 0.94 0.00 71 1061.2
20260901090749 21 270 14.5 0.0 0.00 0.94 0.00 71 1061.3
20260901090636 21 292 11.3 0.0 0.00 0.94 0.00 71 1061.2
20260901090524 21 292 22.5 0.0 0.00 0.94 0.00 70 1061.2
20260901090417 21 292 9.7 0.0 0.00 0.94 0.00 70 1061.2
20260901090248 21 292 8.0 0.0 0.00 0.94 0.00 70 1061.2
20260901090137 22 247 20.9 0.0 0.00 0.94 0.00 69 1061.2
20260901090029 22 292 17.7 0.0 0.00 0.94 0.00 68 1061.2
20260901085908 22 247 17.7 0.0 0.00 0.94 0.00 68 1061.3
20260901085757 22 270 6.4 0.0 0.00 0.94 0.00 67 1061.2
20260901085650 23 270 32.2 0.0 0.00 0.94 0.00 66 1061.2
20260901085531 23 292 22.5 0.0 0.05 0.94 0.00 66 1061.2
20260901085425 23 292 33.8 0.0 0.05 0.94 0.00 67 1061.1
20260901085320 22 292 11.3 0.0 0.05 0.94 0.00 68 1061.1
20260901085214 22 292 16.1 0.0 0.05 0.94 0.00 69 1061.1
20260901085045 22 270 19.3 0.0 0.05 0.94 0.00 71 1061.0
20260901084924 21 292 33.8 0.0 0.05 0.94 0.00 72 1061.1
20260901084803 21 315 24.1 0.0 0.05 0.94 0.00 74 1061.1
20260901084658 21 292 6.4 0.0 0.05 0.94 0.00 75 1061.1
20260901084545 20 292 29.0 0.0 0.05 0.94 0.00 77 1060.9
20260901084439 20 337 20.9 0.0 0.05 0.94 0.00 78 1061.0
20260901084325 19 247 14.5 0.0 0.05 0.94 0.00 78 1061.0
20260901084212 19 247 14.5 0.0 0.05 0.94 0.00 78 1060.9
20260901084059 19 247 20.9 0.0 0.05 0.94 0.00 78 1061.0
20260901083945 19 270 8.0 0.0 0.05 0.94 0.00 77 1061.0
20260901083832 19 225 9.7 0.0 0.05 0.94 0.00 77 1061.0
20260901083703 19 315 12.9 0.0 0.05 0.94 0.00 77 1060.9
20260901083552 20 270 9.7 0.0 0.05 0.94 0.00 77 1060.9
20260901083446 20 270 9.7 0.0 0.05 0.94 0.00 77 1060.8
20260901083343 20 292 16.1 0.0 0.05 0.94 0.00 78 1060.9
20260901083221 20 225 11.3 0.0 0.05 0.94 0.00 79 1060.8
20260901083106 20 270 11.3 0.0 0.05 0.94 0.00 78 1060.9
20260901082937 20 270 20.9 0.0 0.05 0.94 0.00 78 1060.7
20260901082821 20 270 14.5 0.0 0.05 0.94 0.00 78 1060.7
20260901082707 20 247 22.5 0.0 0.05 0.94 0.00 78 1060.6
20260901082554 20 270 22.5 0.0 0.05 0.94 0.00 79 1060.7
20260901082449 20 292 12.9 0.0 0.05 0.94 0.00 79 1060.7
20260901082333 20 247 12.9 0.0 0.05 0.94 0.00 81 1060.7
20260901082221 20 247 16.1 0.0 0.05 0.94 0.00 81 1060.6
20260901082115 20 247 12.9 0.0 0.05 0.94 0.00 81 1060.6
20260901082002 20 292 25.7 0.0 0.05 0.94 0.00 81 1060.7
20260901081849 20 292 20.9 0.0 0.05 0.94 0.00 81 1060.7
20260901081738 20 270 19.3 0.0 0.05 0.94 0.00 81 1060.7
20260901081631 20 270 9.7 0.0 0.05 0.94 0.00 81 1060.6
20260901081518 20 315 14.5 0.0 0.05 0.94 0.00 81 1060.6
20260901081413 20 270 20.9 0.0 0.05 0.94 0.00 81 1060.6
20260901081300 19 270 9.7 0.0 0.05 0.94 0.00 82 1060.6
20260901081147 19 292 9.7 0.0 0.05 0.94 0.00 82 1060.6
20260901081034 19 225 14.5 0.0 0.05 0.94 0.00 82 1060.6
20260901080921 19 270 8.0 0.0 0.05 0.94 0.00 82 1060.6
20260901080816 19 270 3.2 0.0 0.05 0.94 0.00 82 1060.5
20260901080711 19 247 6.4 0.0 0.05 0.94 0.00 82 1060.5
20260901080605 19 270 9.7 0.0 0.05 0.94 0.00 82 1060.5
20260901080452 19 270 14.5 0.0 0.05 0.94 0.00 82 1060.5
20260901080339 19 292 8.0 0.0 0.05 0.94 0.00 82 1060.5
20260901080234 19 270 9.7 0.0 0.05 0.94 0.00 82 1060.5
20260901080121 19 270 11.3 0.0 0.05 0.94 0.00 82 1060.5
20260901080008 19 247 9.7 0.0 0.05 0.94 0.00 81 1060.5
20260901075854 20 270 3.2 0.0 0.05 0.94 0.00 81 1060.5
20260901075733 20 247 4.8 0.0 0.05 0.94 0.00 81 1060.5
20260901075621 20 247 14.5 0.0 0.00 0.89 0.00 81 1060.5
20260901075459 20 247 17.7 0.0 0.00 0.89 0.00 81 1060.5
20260901075338 20 292 12.9 0.0 0.00 0.89 0.00 81 1060.5
20260901075233 20 247 12.9 0.0 0.00 0.89 0.00 83 1060.5
20260901075120 20 270 8.0 0.0 0.00 0.89 0.00 83 1060.5
20260901075009 20 292 6.4 0.0 0.00 0.89 0.00 83 1060.4
20260901074903 19 292 0.0 0.0 0.00 0.89 0.00 83 1060.5
20260901074756 19 247 9.7 0.0 0.00 0.89 0.00 83 1060.5
20260901074646 19 270 17.7 0.0 0.00 0.89 0.00 84 1060.5
20260901074539 19 247 11.3 0.0 0.00 0.89 0.00 84 1060.5
20260901074426 19 292 8.0 0.0 0.00 0.89 0.00 84 1060.4
20260901074319 18 247 8.0 0.0 0.00 0.89 0.00 84 1060.5
20260901074020 18 270 8.0 0.0 0.00 0.89 0.00 84 1060.4
20260901073909 18 270 12.9 0.0 0.00 0.89 0.00 85 1060.4
20260901073802 18 247 12.9 0.0 0.00 0.89 0.00 85 1060.4
20260901073633 18 270 9.7 0.0 0.00 0.89 0.00 84 1060.4
20260901073422 18 270 11.3 0.0 0.00 0.89 0.00 84 1060.3
20260901073301 18 247 9.7 0.0 0.00 0.89 0.00 84 1060.4
20260901072753 18 292 183.5 0.0 0.00 0.89 0.00 81 1060.3
20260901072123 19 292 183.5 0.0 0.00 0.89 0.00 79 1060.2
20260901071507 19 270 16.1 0.0 0.00 0.89 0.00 79 1060.2
20260901071337 19 270 6.4 0.0 0.00 0.89 0.00 78 1060.2
20260901071216 20 270 6.4 0.0 0.00 0.89 0.00 78 1060.2
20260901071103 20 270 6.4 0.0 0.00 0.89 0.00 77 1060.3
20260901070949 20 292 9.7 0.0 0.00 0.89 0.00 76 1060.2
20260901070821 20 270 9.7 0.0 0.00 0.89 0.00 76 1060.2
20260901070717 20 270 8.0 0.0 0.00 0.89 0.00 76 1060.2
20260901070610 21 225 0.0 0.0 0.00 0.89 0.00 76 1060.2
20260901070449 21 270 9.7 0.0 0.00 0.89 0.00 77 1060.2
20260901070238 20 247 183.5 0.0 0.00 0.89 0.00 82 1060.3
20260901065608 18 247 183.5 0.0 0.00 0.94 0.00 84 1060.2
20260901064938 19 247 183.5 0.0 0.00 0.94 0.00 83 1060.2
20260901064308 19 247 183.5 0.0 0.00 0.94 0.00 83 1060.2
20260901063702 20 247 183.5 0.0 0.00 0.94 0.00 83 1060.1
20260901063024 20 247 183.5 0.0 0.00 0.94 0.00 85 1060.1
20260901062354 20 247 183.5 0.0 0.00 0.94 0.00 85 1060.1
20260901061751 19 247 183.5 0.0 0.00 0.94 0.00 90 1060.0
20260901061135 18 247 183.5 0.0 0.00 0.94 0.00 93 1059.9
20260901060519 16 247 183.5 0.0 0.05 0.94 0.00 93 1059.8
20260901055841 16 247 183.5 0.0 0.05 0.94 0.00 93 1059.9
20260901055211 16 247 183.5 0.0 0.05 0.94 0.00 93 1059.8
20260901054549 16 247 183.5 0.0 0.05 0.94 0.00 93 1059.7
20260901053912 16 247 183.5 0.0 0.05 0.94 0.00 92 1059.7
20260901053241 16 247 183.5 0.0 0.05 0.94 0.00 92 1059.6
20260901052612 16 247 183.5 0.0 0.05 0.94 0.00 92 1059.6
20260901051942 16 247 183.5 0.0 0.05 0.94 0.00 92 1059.4
20260901051311 16 247 183.5 0.0 0.05 0.94 0.00 92 1059.4
20260901050645 16 247 183.5 0.0 0.00 0.89 0.00 92 1059.4
20260901050044 16 247 183.5 0.0 0.00 0.89 0.00 92 1059.4
20260901045439 16 247 9.7 0.0 0.00 0.89 0.00 92 1059.3
20260901045319 16 270 1.6 0.0 0.00 0.89 0.00 91 1059.3
20260901045214 16 247 8.0 0.0 0.00 0.89 0.00 91 1059.2
20260901045108 16 270 11.3 0.0 0.00 0.89 0.00 91 1059.3
20260901044959 16 225 6.4 0.0 0.00 0.89 0.00 91 1059.2
20260901044845 16 247 9.7 0.0 0.00 0.89 0.00 91 1059.2
20260901044738 16 270 8.0 0.0 0.00 0.89 0.00 91 1059.2
20260901044624 16 270 9.7 0.0 0.00 0.89 0.00 91 1059.2
20260901044502 16 270 11.3 0.0 0.00 0.89 0.00 91 1059.3
20260901044347 16 270 6.4 0.0 0.00 0.89 0.00 91 1059.3
20260901044234 16 270 0.0 0.0 0.00 0.89 0.00 91 1059.4
20260901044129 16 270 4.8 0.0 0.00 0.89 0.00 91 1059.3
20260901044020 16 247 1.6 0.0 0.00 0.89 0.00 91 1059.3
20260901043859 16 225 4.8 0.0 0.00 0.89 0.00 91 1059.2
20260901043743 16 270 8.0 0.0 0.00 0.89 0.00 91 1059.3
20260901043623 16 247 3.2 0.0 0.00 0.89 0.00 91 1059.2
20260901043511 16 247 3.2 0.0 0.00 0.89 0.00 91 1059.3
20260901043403 16 225 3.2 0.0 0.00 0.89 0.00 90 1059.2
20260901043250 16 247 0.0 0.0 0.00 0.89 0.00 90 1059.2
20260901043147 16 270 1.6 0.0 0.00 0.89 0.00 90 1059.3
20260901043038 16 270 6.4 0.0 0.00 0.89 0.00 90 1059.3
20260901042916 16 270 6.4 0.0 0.00 0.89 0.00 90 1059.2
20260901042754 16 247 0.0 0.0 0.00 0.89 0.00 90 1059.2
20260901042633 16 270 4.8 0.0 0.00 0.89 0.00 89 1059.2
20260901042512 16 270 1.6 0.0 0.00 0.89 0.00 89 1059.2
20260901042351 16 247 6.4 0.0 0.00 0.89 0.00 89 1059.1
20260901042237 16 202 0.0 0.0 0.00 0.89 0.00 89 1059.2
20260901042124 16 247 0.0 0.0 0.00 0.89 0.00 89 1059.2
20260901042011 16 225 4.8 0.0 0.00 0.89 0.00 89 1059.2
20260901041852 16 202 8.0 0.0 0.00 0.89 0.00 89 1059.2
20260901041745 16 202 0.0 0.0 0.00 0.89 0.00 89 1059.2
20260901041632 16 225 0.0 0.0 0.00 0.89 0.00 88 1059.1
20260901041510 16 225 0.0 0.0 0.00 0.89 0.00 88 1059.2
20260901041350 16 247 0.0 0.0 0.00 0.89 0.00 88 1059.2
20260901041244 16 247 0.0 0.0 0.00 0.89 0.00 88 1059.1
20260901041130 16 247 0.0 0.0 0.00 0.89 0.00 88 1059.2
20260901041011 16 270 3.2 0.0 0.00 0.89 0.00 88 1059.2
20260901040904 16 247 8.0 0.0 0.00 0.89 0.00 88 1059.2
20260901040755 16 247 4.8 0.0 0.00 0.89 0.00 88 1059.2
20260901040630 16 270 11.3 0.0 0.00 0.89 0.00 88 1059.2
20260901040508 17 292 4.8 0.0 0.00 0.89 0.00 87 1059.2
20260901040340 17 225 3.2 0.0 0.00 0.89 0.00 87 1059.2
20260901040219 17 292 3.2 0.0 0.00 0.89 0.00 87 1059.1
20260901040106 16 292 9.7 0.0 0.00 0.89 0.00 86 1059.1
20260901035953 16 247 3.2 0.0 0.00 0.89 0.00 86 1059.1
20260901035839 16 247 12.9 0.0 0.00 0.89 0.00 85 1059.0
20260901035718 16 270 9.7 0.0 0.00 0.89 0.00 85 1059.0
20260901035603 16 270 11.3 0.0 0.00 0.89 0.00 86 1059.0
20260901035448 16 292 0.0 0.0 0.00 0.89 0.00 86 1059.0
20260901035320 17 315 6.4 0.0 0.00 0.89 0.00 86 1059.0
20260901035207 17 292 8.0 0.0 0.00 0.89 0.00 86 1059.0
20260901035102 17 270 4.8 0.0 0.00 0.89 0.00 87 1058.9
20260901034941 17 270 0.0 0.0 0.00 0.89 0.00 87 1058.9
20260901034829 17 292 8.0 0.0 0.00 0.89 0.00 87 1059.0
20260901034700 17 292 4.8 0.0 0.00 0.89 0.00 87 1059.0
20260901034539 17 270 8.0 0.0 0.00 0.89 0.00 87 1059.0
20260901034416 17 270 1.6 0.0 0.00 0.89 0.00 87 1059.0
20260901034311 17 315 6.4 0.0 0.00 0.89 0.00 87 1059.0
20260901034157 17 270 3.2 0.0 0.00 0.89 0.00 87 1059.0
20260901034044 17 270 6.4 0.0 0.00 0.89 0.00 87 1058.9
20260901033917 17 270 0.0 0.0 0.00 0.89 0.00 87 1059.0
20260901033812 17 270 8.0 0.0 0.00 0.89 0.00 86 1059.0
20260901033704 17 270 9.7 0.0 0.00 0.89 0.00 86 1059.0
20260901033552 17 270 6.4 0.0 0.00 0.89 0.00 86 1059.0
20260901033438 17 270 8.0 0.0 0.00 0.89 0.00 86 1059.0
20260901033317 17 270 0.0 0.0 0.00 0.89 0.00 86 1059.0
20260901033205 17 292 6.4 0.0 0.00 0.89 0.00 85 1059.0
20260901033057 17 292 9.7 0.0 0.00 0.89 0.00 85 1059.0
20260901032952 17 292 9.7 0.0 0.00 0.89 0.00 85 1059.0
20260901032845 17 292 9.7 0.0 0.00 0.89 0.00 85 1059.0
20260901032716 17 292 9.7 0.0 0.00 0.89 0.00 85 1058.9
20260901032603 17 315 0.0 0.0 0.00 0.89 0.00 85 1058.9
20260901032456 17 315 8.0 0.0 0.00 0.89 0.00 85 1058.9
20260901032335 17 292 4.8 0.0 0.00 0.89 0.00 85 1059.0
20260901032223 17 292 9.7 0.0 0.00 0.89 0.00 85 1058.9
20260901032116 17 292 11.3 0.0 0.00 0.89 0.00 85 1058.9
20260901032003 17 247 0.0 0.0 0.00 0.89 0.00 85 1058.9
20260901031850 17 270 3.2 0.0 0.00 0.89 0.00 85 1058.9
20260901031736 17 337 9.7 0.0 0.00 0.89 0.00 85 1058.9
20260901031623 17 270 8.0 0.0 0.00 0.89 0.00 86 1058.8
20260901031509 17 292 9.7 0.0 0.00 0.89 0.00 86 1058.8
20260901031403 17 0 9.7 0.0 0.00 0.89 0.00 85 1058.9
20260901031256 17 247 4.8 0.0 0.00 0.89 0.00 85 1058.9
20260901031143 17 292 0.0 0.0 0.00 0.89 0.00 85 1058.8
20260901031021 17 270 4.8 0.0 0.00 0.89 0.00 85 1058.8
20260901030908 17 315 3.2 0.0 0.00 0.89 0.00 85 1058.8
20260901030802 17 315 9.7 0.0 0.00 0.89 0.00 85 1058.8
20260901030657 17 337 4.8 0.0 0.00 0.89 0.00 85 1058.8
20260901030543 17 315 3.2 0.0 0.00 0.89 0.00 85 1058.8
20260901030431 17 315 6.4 0.0 0.00 0.89 0.00 85 1058.8
20260901030326 17 292 4.8 0.0 0.00 0.89 0.00 85 1058.8
20260901030211 17 337 8.0 0.0 0.00 0.89 0.00 85 1058.7
20260901030058 17 292 6.4 0.0 0.00 0.89 0.00 85 1058.8
20260901025953 17 292 4.8 0.0 0.00 0.89 0.00 85 1058.8
20260901025847 17 292 14.5 0.0 0.00 0.89 0.00 85 1058.7
20260901025742 17 337 8.0 0.0 0.00 0.89 0.00 85 1058.8
20260901025621 17 292 3.2 0.0 0.00 0.89 0.00 85 1058.8
20260901025508 17 247 8.0 0.0 0.00 0.89 0.00 85 1058.9
20260901025354 17 247 9.7 0.0 0.00 0.89 0.00 86 1058.9
20260901025241 17 315 12.9 0.0 0.00 0.89 0.00 86 1058.9
20260901025119 17 315 14.5 0.0 0.00 0.89 0.00 86 1058.9
20260901025006 17 315 12.9 0.0 0.00 0.89 0.00 86 1058.9
20260901024844 17 292 11.3 0.0 0.00 0.89 0.00 86 1058.8
20260901024726 17 337 6.4 0.0 0.00 0.89 0.00 86 1058.9
20260901024619 17 315 6.4 0.0 0.00 0.89 0.00 86 1058.8
20260901024505 17 337 11.3 0.0 0.00 0.89 0.00 86 1058.8
20260901024344 17 292 4.8 0.0 0.00 0.89 0.00 85 1058.9
20260901024231 17 315 11.3 0.0 0.00 0.89 0.00 85 1058.9
20260901024127 17 315 4.8 0.0 0.00 0.89 0.00 85 1058.8
20260901024013 17 270 11.3 0.0 0.00 0.89 0.00 85 1058.8
20260901023901 17 270 12.9 0.0 0.00 0.89 0.00 85 1058.9
20260901023755 17 247 9.7 0.0 0.00 0.89 0.00 85 1058.9
20260901023633 17 315 9.7 0.0 0.00 0.89 0.00 84 1058.8
20260901023527 17 315 9.7 0.0 0.00 0.89 0.00 84 1058.8
20260901023421 17 337 6.4 0.0 0.00 0.89 0.00 84 1058.8
20260901023315 17 292 12.9 0.0 0.00 0.89 0.00 84 1058.9
20260901023209 17 270 3.2 0.0 0.00 0.89 0.00 84 1058.9
20260901023021 17 315 183.5 0.0 0.00 0.89 0.00 84 1058.7
20260901022407 17 315 183.5 0.0 0.00 0.89 0.00 84 1058.8
20260901021752 17 315 183.5 0.0 0.00 0.89 0.00 84 1058.8
20260901021200 17 315 183.5 0.0 0.00 0.89 0.00 84 1058.7
20260901020543 17 315 183.5 0.0 0.00 0.89 0.00 85 1058.7
20260901015956 17 315 183.5 0.0 0.00 0.94 0.00 85 1058.7
20260901015412 17 315 183.5 0.0 0.00 0.94 0.00 85 1058.7
20260901014808 17 315 183.5 0.0 0.00 0.94 0.00 85 1058.7
20260901014144 17 315 183.5 0.0 0.00 0.94 0.00 85 1058.7
20260901013530 17 315 183.5 0.0 0.00 0.94 0.00 86 1058.5
20260901012916 17 315 183.5 0.0 0.00 0.94 0.00 85 1058.3
20260901012309 17 315 183.5 0.0 0.00 0.94 0.00 86 1058.4
20260901011704 17 315 183.5 0.0 0.00 0.94 0.00 86 1058.4
20260901011050 17 315 183.5 0.0 0.00 0.94 0.00 86 1058.4
20260901010443 17 315 183.5 0.0 0.00 0.94 0.00 86 1058.3
20260901005514 17 315 183.5 0.0 0.00 0.99 0.00 86 1058.2
20260901004901 17 315 183.5 0.0 0.00 0.99 0.00 87 1058.2
20260901004246 17 315 183.5 0.0 0.00 0.99 0.00 87 1058.2
20260901003632 17 315 183.5 0.0 0.00 0.99 0.00 87 1058.1
20260901003019 17 315 183.5 0.0 0.00 0.99 0.00 87 1058.1
20260901002405 17 315 183.5 0.0 0.00 0.99 0.00 88 1058.1
20260901001745 17 315 183.5 0.0 0.00 0.99 0.00 89 1058.1
20260901001121 17 315 183.5 0.0 0.00 0.99 0.00 90 1058.0
20260901000516 17 315 183.5 0.0 0.00 0.99 0.00 90 1058.0
20260831235907 17 315 183.5 0.0 0.05 0.99 0.00 90 1057.9
20260831235251 17 315 183.5 0.0 0.05 0.99 0.00 90 1058.0
20260831234638 16 315 183.5 0.0 0.05 0.99 0.00 90 1057.9
20260831234041 16 315 183.5 0.0 0.05 0.99 0.00 90 1057.9
20260831233411 16 315 183.5 0.0 0.05 0.99 0.00 90 1057.8
20260831232749 16 315 183.5 0.0 0.05 0.99 0.00 89 1057.8
20260831232111 16 315 183.5 0.0 0.05 0.99 0.00 89 1057.9
20260831231459 16 315 183.5 0.0 0.05 0.99 0.00 89 1057.8
20260831230844 16 315 183.5 0.0 0.05 0.99 0.00 89 1057.8
20260831230254 17 315 183.5 0.0 0.05 0.99 0.00 91 1057.8
20260831225646 16 315 183.5 0.0 0.00 0.94 0.00 91 1057.6
20260831225038 16 315 183.5 0.0 0.00 0.94 0.00 91 1057.6
20260831224432 16 315 183.5 0.0 0.00 0.94 0.00 92 1057.5
20260831223833 16 315 183.5 0.0 0.00 0.94 0.00 92 1057.5
20260831223228 16 315 183.5 0.0 0.00 0.94 0.00 92 1057.5
20260831222606 16 315 183.5 0.0 0.00 0.94 0.00 91 1057.4
20260831222000 16 315 183.5 0.0 0.00 0.94 0.00 91 1057.4
20260831221416 16 315 183.5 0.0 0.00 0.94 0.00 91 1057.3
20260831220833 16 315 8.0 0.0 0.00 0.94 0.00 91 1057.3
20260831220701 16 292 6.4 0.0 0.00 0.94 0.00 91 1057.4
20260831220556 16 247 12.9 0.0 0.00 0.94 0.00 91 1057.4
20260831220449 16 292 9.7 0.0 0.00 0.94 0.00 91 1057.4
20260831220343 16 270 4.8 0.0 0.00 0.94 0.00 91 1057.4
20260831220222 16 292 0.0 0.0 0.00 0.94 0.00 91 1057.3
20260831220108 16 315 8.0 0.0 0.00 0.94 0.00 90 1057.4
20260831215954 16 292 11.3 0.0 0.00 0.94 0.00 90 1057.3
20260831215848 16 315 4.8 0.0 0.00 0.94 0.00 90 1057.5
20260831215743 16 0 11.3 0.0 0.00 0.94 0.00 90 1057.4
20260831215621 16 315 11.3 0.0 0.00 0.94 0.00 90 1057.5
20260831215404 17 315 20.9 0.0 0.00 0.94 0.00 91 1057.5
20260831215207 16 292 12.9 0.0 0.00 0.94 0.00 92 1057.4
20260831215038 16 292 8.0 0.0 0.00 0.94 0.00 92 1057.3
20260831214844 16 247 16.1 0.0 0.00 0.94 0.00 92 1057.3
20260831214733 16 315 4.8 0.0 0.00 0.94 0.00 92 1057.3
20260831214618 16 337 6.4 0.0 0.00 0.94 0.00 92 1057.3
20260831214505 16 292 9.7 0.0 0.00 0.94 0.00 92 1057.4
20260831214354 16 292 8.0 0.0 0.00 0.94 0.00 92 1057.3
20260831214248 16 315 6.4 0.0 0.00 0.94 0.00 92 1057.3
20260831214135 16 292 11.3 0.0 0.00 0.94 0.00 92 1057.2
20260831214029 16 292 12.9 0.0 0.00 0.94 0.00 92 1057.1
20260831213924 16 337 4.8 0.0 0.00 0.94 0.00 92 1057.1
20260831213811 16 315 4.8 0.0 0.00 0.94 0.00 92 1057.1
20260831213704 16 292 6.4 0.0 0.00 0.94 0.00 92 1057.1
20260831213546 16 292 6.4 0.0 0.00 0.94 0.00 92 1057.2
20260831213441 16 292 6.4 0.0 0.00 0.94 0.00 92 1057.2
20260831213336 16 292 6.4 0.0 0.00 0.94 0.00 92 1057.1
20260831213230 16 315 9.7 0.0 0.00 0.94 0.00 92 1057.1
20260831213116 16 315 6.4 0.0 0.00 0.94 0.00 92 1057.2
20260831212947 16 270 11.3 0.0 0.00 0.94 0.00 92 1057.1
20260831212834 16 315 6.4 0.0 0.00 0.94 0.00 92 1057.1
20260831212721 16 292 8.0 0.0 0.00 0.94 0.00 92 1057.1
20260831212559 16 0 6.4 0.0 0.00 0.94 0.00 92 1057.1
20260831212430 16 292 11.3 0.0 0.00 0.94 0.00 92 1057.1
20260831212311 16 337 4.8 0.0 0.00 0.94 0.00 92 1057.1
20260831212205 16 292 3.2 0.0 0.00 0.94 0.00 92 1057.1
20260831212059 16 315 0.0 0.0 0.00 0.94 0.00 92 1057.1
20260831211946 16 337 6.4 0.0 0.00 0.94 0.00 92 1057.0
20260831211824 16 315 1.6 0.0 0.00 0.94 0.00 92 1057.1
20260831211704 16 292 6.4 0.0 0.00 0.94 0.00 92 1057.0
20260831211601 16 292 4.8 0.0 0.00 0.94 0.00 92 1057.0
20260831211453 16 292 9.7 0.0 0.00 0.94 0.00 92 1057.0
20260831211341 16 270 3.2 0.0 0.00 0.94 0.00 92 1057.0
20260831211219 16 292 3.2 0.0 0.00 0.94 0.00 92 1056.9
20260831211106 16 292 9.7 0.0 0.00 0.94 0.00 92 1056.9
20260831210938 16 337 9.7 0.0 0.00 0.94 0.00 92 1056.9
20260831210831 16 292 3.2 0.0 0.00 0.94 0.00 92 1056.9
20260831210710 16 337 4.8 0.0 0.00 0.94 0.00 92 1056.9
20260831210550 16 315 1.6 0.0 0.00 0.94 0.00 92 1056.8
20260831210437 16 270 6.4 0.0 0.00 0.94 0.00 92 1056.8
20260831210332 16 315 6.4 0.0 0.00 0.94 0.00 92 1056.8
20260831210226 16 270 6.4 0.0 0.00 0.94 0.00 92 1056.8
20260831210113 16 292 9.7 0.0 0.00 0.94 0.00 92 1056.9
20260831205953 16 270 6.4 0.0 0.00 0.94 0.00 93 1056.8
20260831205838 16 315 3.2 0.0 0.00 0.94 0.00 92 1056.7
20260831205725 16 292 6.4 0.0 0.00 0.94 0.00 92 1056.7
20260831205604 16 292 3.2 0.0 0.00 0.94 0.00 92 1056.7
20260831205452 16 315 4.8 0.0 0.00 0.94 0.00 92 1056.8
20260831205339 16 315 11.3 0.0 0.00 0.94 0.00 92 1056.8
20260831205217 16 315 8.0 0.0 0.00 0.94 0.00 92 1056.7
20260831205055 16 270 4.8 0.0 0.00 0.94 0.00 92 1056.7
20260831204934 16 292 4.8 0.0 0.00 0.94 0.00 93 1056.7
20260831204815 16 315 4.8 0.0 0.00 0.94 0.00 93 1056.7
20260831204708 16 292 3.2 0.0 0.00 0.94 0.00 93 1056.7
20260831204556 16 315 4.8 0.0 0.00 0.94 0.00 93 1056.6
20260831204449 16 292 9.7 0.0 0.00 0.94 0.00 93 1056.6
20260831204330 16 337 12.9 0.0 0.00 0.94 0.00 93 1056.6
20260831204200 16 0 0.0 0.0 0.00 0.94 0.00 93 1056.6
20260831204054 16 22 3.2 0.0 0.00 0.94 0.00 93 1056.6
20260831203941 16 247 3.2 0.0 0.05 0.94 0.00 93 1056.5
20260831203819 16 315 19.3 0.0 0.05 0.94 0.00 93 1056.4
20260831203650 16 247 6.4 0.0 0.05 0.94 0.00 93 1056.5
20260831203529 16 292 9.7 0.0 0.05 0.94 0.00 93 1056.4
20260831203407 16 270 4.8 0.0 0.05 0.94 0.00 93 1056.4
20260831203239 16 270 9.7 0.0 0.05 0.94 0.00 93 1056.4
20260831203117 16 315 11.3 0.0 0.05 0.94 0.00 93 1056.3
20260831203007 16 292 9.7 0.0 0.05 0.94 0.00 93 1056.4
20260831202900 16 315 3.2 0.0 0.05 0.94 0.00 93 1056.3
20260831202754 16 292 12.9 0.0 0.05 0.94 0.00 93 1056.3
20260831202641 16 315 6.4 0.0 0.05 0.94 0.00 93 1056.3
20260831202519 16 337 6.4 0.0 0.05 0.94 0.00 93 1056.3
20260831202350 16 315 14.5 0.0 0.10 0.94 0.00 93 1056.3
20260831202229 16 315 11.3 0.0 0.10 0.94 0.00 93 1056.2
20260831202108 16 315 4.8 0.0 0.10 0.94 0.00 93 1056.2
20260831201946 16 270 14.5 0.0 0.10 0.94 0.00 93 1056.2
20260831201819 16 292 6.4 0.0 0.10 0.94 0.00 93 1056.2
20260831201704 16 315 4.8 0.0 0.10 0.94 0.00 93 1056.2
20260831201543 16 292 9.7 0.0 0.10 0.94 0.00 93 1056.2
20260831201429 16 315 9.7 0.0 0.10 0.94 0.00 93 1056.0
20260831201308 16 292 9.7 0.0 0.10 0.94 0.00 93 1056.1
20260831201139 16 270 6.4 0.0 0.10 0.94 0.00 93 1056.1
20260831201020 16 315 8.0 0.0 0.10 0.94 0.00 93 1056.0
20260831200904 16 292 4.8 0.0 0.10 0.94 0.00 93 1056.0
20260831200746 16 337 3.2 0.0 0.10 0.94 0.00 93 1056.0
20260831200638 16 315 12.9 0.0 0.10 0.94 0.00 93 1056.1
20260831200509 16 315 8.0 0.0 0.10 0.94 0.00 93 1056.0
20260831200356 16 292 8.0 0.0 0.10 0.94 0.00 93 1056.0
20260831200243 16 315 6.4 0.0 0.10 0.94 0.00 93 1056.0
20260831200129 16 337 4.8 0.0 0.10 0.94 0.00 93 1056.0
20260831200009 16 270 8.0 0.0 0.10 0.94 0.00 93 1055.9
20260831195847 16 292 9.7 0.0 0.10 0.94 0.00 93 1055.9
20260831195726 16 315 0.0 0.0 0.10 0.94 0.00 93 1055.9
20260831195613 16 315 6.4 0.0 0.10 0.94 0.00 93 1055.9
20260831195502 16 292 4.8 0.0 0.10 0.94 0.00 93 1055.9
20260831195354 16 292 0.0 0.0 0.10 0.94 0.00 93 1055.9
20260831195234 16 337 14.5 0.0 0.10 0.94 0.00 93 1055.9
20260831195128 16 0 6.4 0.0 0.10 0.94 0.00 93 1055.8
20260831195007 16 270 11.3 0.0 0.10 0.94 0.00 93 1055.8
20260831194847 16 315 12.9 0.0 0.10 0.94 0.00 93 1055.7
20260831194740 16 315 9.7 0.0 0.15 0.94 0.00 92 1055.7
20260831194622 16 0 12.9 0.0 0.15 0.94 0.00 92 1055.8
20260831194513 16 292 6.4 0.0 0.15 0.94 0.00 92 1055.7
20260831194353 16 337 8.0 0.0 0.15 0.94 0.00 92 1055.7
20260831194234 16 292 6.4 0.0 0.15 0.94 0.00 92 1055.7
20260831194127 16 292 20.9 0.0 0.15 0.94 0.00 92 1055.7
20260831194006 16 315 22.5 0.0 0.10 0.89 0.00 92 1055.7
20260831193852 16 292 6.4 0.0 0.10 0.89 0.00 92 1055.6
20260831193734 16 315 11.3 0.0 0.10 0.89 0.00 92 1055.6
20260831193627 16 337 12.9 0.0 0.10 0.89 0.00 92 1055.6
20260831193514 16 315 8.0 0.0 0.10 0.89 0.00 92 1055.6
20260831193352 16 225 9.7 0.0 0.10 0.89 0.00 92 1055.6
20260831193240 16 0 17.7 0.0 0.10 0.89 0.00 92 1055.6
20260831193127 16 0 0.0 0.0 0.10 0.89 0.00 92 1055.6
20260831193020 16 292 9.7 0.0 0.10 0.89 0.00 92 1055.6
20260831192901 16 292 32.2 0.0 0.10 0.89 0.00 92 1055.5
20260831192749 16 292 9.7 0.0 0.10 0.89 0.00 92 1055.5
20260831192641 16 337 9.7 0.0 0.05 0.84 0.00 92 1055.5
20260831192528 16 292 9.7 0.0 0.05 0.84 0.00 92 1055.5
20260831192410 16 270 6.4 0.0 0.05 0.84 0.00 92 1055.3
20260831192305 16 270 9.7 0.0 0.05 0.84 0.00 92 1055.4
20260831192142 16 315 9.7 0.0 0.05 0.84 0.00 92 1055.3
20260831192035 16 337 8.0 0.0 0.05 0.84 0.00 92 1055.2
20260831191909 16 270 9.7 0.0 0.05 0.84 0.00 92 1055.3
20260831191754 16 315 0.0 0.0 0.05 0.84 0.00 92 1055.2
20260831191649 16 337 11.3 0.0 0.05 0.84 0.00 92 1055.2
20260831191519 16 315 17.7 0.0 0.05 0.84 0.00 92 1055.2
20260831191406 16 337 9.7 0.0 0.05 0.84 0.00 92 1055.2
20260831191252 16 315 12.9 0.0 0.05 0.84 0.00 92 1055.2
20260831191134 16 292 11.3 0.0 0.05 0.84 0.00 92 1055.2
20260831191026 16 292 8.0 0.0 0.05 0.84 0.00 92 1055.1
20260831190913 16 315 3.2 0.0 0.05 0.84 0.00 92 1055.1
20260831190801 16 270 9.7 0.0 0.05 0.84 0.00 92 1055.1
20260831190639 16 0 8.0 0.0 0.05 0.84 0.00 92 1055.1
20260831190520 16 315 4.8 0.0 0.05 0.84 0.00 92 1055.1
20260831190405 16 315 0.0 0.0 0.05 0.84 0.00 92 1055.1
20260831190253 16 292 9.7 0.0 0.05 0.84 0.00 92 1055.0
20260831190146 16 315 12.9 0.0 0.05 0.84 0.00 92 1055.0
20260831190033 16 315 9.7 0.0 0.05 0.84 0.00 92 1055.1
20260831185905 16 292 9.7 0.0 0.05 0.84 0.00 92 1055.0
20260831185800 16 292 0.0 0.0 0.05 0.84 0.00 92 1055.0
20260831185646 16 337 8.0 0.0 0.05 0.84 0.00 92 1055.0
20260831185525 16 292 6.4 0.0 0.05 0.84 0.00 92 1054.9
20260831185414 16 315 0.0 0.0 0.05 0.84 0.00 92 1054.8
20260831185309 16 315 6.4 0.0 0.05 0.84 0.00 92 1054.9
20260831185202 16 315 3.2 0.0 0.05 0.84 0.00 92 1054.9
20260831185049 16 315 17.7 0.0 0.00 0.79 0.00 91 1055.1
20260831184943 16 337 8.0 0.0 0.00 0.79 0.00 91 1054.9
20260831184837 16 315 17.7 0.0 0.00 0.79 0.00 91 1054.9
20260831184731 16 315 9.7 0.0 0.00 0.79 0.00 91 1054.8
20260831184625 16 292 14.5 0.0 0.00 0.79 0.00 91 1054.8
20260831184520 16 270 4.8 0.0 0.00 0.79 0.00 91 1054.8
20260831184406 16 315 9.7 0.0 0.00 0.79 0.00 91 1054.8
20260831184245 16 292 27.4 0.0 0.00 0.79 0.00 91 1054.7
20260831184139 16 292 14.5 0.0 0.00 0.79 0.00 91 1054.8
20260831184025 16 270 11.3 0.0 0.00 0.79 0.00 91 1054.6
20260831183917 16 315 9.7 0.0 0.10 0.79 0.00 91 1054.6
20260831183748 16 292 11.3 0.0 0.10 0.79 0.00 91 1054.6
20260831183636 16 292 12.9 0.0 0.10 0.79 0.00 91 1054.6
20260831183529 16 315 6.4 0.0 0.20 0.79 0.00 91 1054.5
20260831183423 16 0 3.2 0.0 0.20 0.79 0.00 91 1054.4
20260831183305 16 270 6.4 0.0 0.20 0.79 0.00 91 1054.4
20260831183157 16 225 4.8 0.0 0.25 0.79 0.00 91 1054.4
20260831183037 16 292 8.0 0.0 0.25 0.79 0.00 91 1054.4
20260831182931 16 337 1.6 0.0 0.25 0.79 0.00 91 1054.2
20260831182810 16 225 9.7 0.0 0.30 0.79 0.00 91 1054.3
20260831182648 16 315 11.3 0.0 0.30 0.79 0.00 91 1054.3
20260831182543 16 337 8.0 0.0 0.30 0.79 0.00 91 1054.3
20260831182436 16 247 16.1 0.0 0.30 0.79 0.00 91 1054.2
20260831182331 16 270 12.9 0.0 0.30 0.79 0.00 92 1054.2
20260831182225 16 315 11.3 0.0 0.30 0.79 0.00 92 1054.2
20260831182113 16 337 4.8 0.0 0.30 0.79 0.00 92 1054.2
20260831182007 16 292 16.1 0.0 0.30 0.79 0.00 92 1054.1
20260831181845 16 270 9.7 0.0 0.30 0.79 0.00 92 1054.2
20260831181733 16 315 11.3 0.0 0.30 0.79 0.00 92 1054.1
20260831181619 16 292 6.4 0.0 0.30 0.79 0.00 92 1054.1
20260831181507 16 315 20.9 0.0 0.30 0.79 0.00 92 1054.1
20260831181401 16 315 16.1 0.0 0.30 0.79 0.00 92 1054.1
20260831181250 16 315 20.9 0.0 0.30 0.79 0.00 92 1054.1
20260831181143 16 337 11.3 0.0 0.30 0.79 0.00 92 1054.1
20260831181022 16 292 4.8 0.0 0.30 0.79 0.00 92 1054.1
20260831180909 16 315 8.0 0.0 0.30 0.79 0.00 92 1054.1
20260831180755 16 292 11.3 0.0 0.30 0.79 0.00 92 1054.0
20260831180643 16 315 9.7 0.0 0.30 0.79 0.00 92 1054.0
20260831180539 16 247 14.5 0.0 0.30 0.79 0.00 92 1054.0
20260831180433 16 0 3.2 0.0 0.30 0.79 0.00 92 1054.0
20260831180328 16 337 6.4 0.0 0.30 0.79 0.00 92 1053.9
20260831180222 16 292 8.0 0.0 0.30 0.79 0.00 92 1053.9
20260831180111 16 315 16.1 0.0 0.30 0.79 0.00 92 1053.9
20260831175956 16 292 30.6 0.0 0.30 0.79 0.00 92 1054.0
20260831175835 16 337 9.7 0.0 0.30 0.79 0.00 92 1053.9
20260831175717 16 247 12.9 0.0 0.30 0.79 0.00 92 1053.9
20260831175609 16 270 11.3 0.0 0.30 0.79 0.00 92 1053.8
20260831175455 16 270 6.4 0.0 0.30 0.79 0.00 91 1053.8
20260831175334 16 292 0.0 0.0 0.30 0.79 0.00 91 1053.7
20260831175228 16 292 16.1 0.0 0.30 0.79 0.00 91 1053.8
20260831175116 16 292 9.7 0.0 0.30 0.79 0.00 91 1053.8
20260831174959 16 315 6.4 0.0 0.30 0.79 0.00 91 1053.8
20260831174846 16 270 8.0 0.0 0.30 0.79 0.00 91 1053.7
20260831174732 16 270 19.3 0.0 0.30 0.79 0.00 90 1053.6
20260831174620 16 315 11.3 0.0 0.30 0.79 0.00 90 1053.7
20260831174512 16 292 11.3 0.0 0.30 0.79 0.00 91 1053.7
20260831174350 16 225 8.0 0.0 0.25 0.74 0.00 91 1053.6
20260831174245 16 337 30.6 0.0 0.20 0.66 0.00 91 1053.7
20260831174138 16 315 8.0 0.0 0.20 0.66 0.00 90 1053.7
20260831174034 16 270 11.3 0.0 0.20 0.66 0.00 90 1053.6
20260831173928 16 247 14.5 0.0 0.20 0.61 0.00 90 1053.6
20260831173814 16 270 0.0 0.0 0.15 0.56 0.00 90 1053.6
20260831173702 16 247 9.7 0.0 0.15 0.56 0.00 89 1053.5
20260831173541 16 270 8.0 0.0 0.15 0.56 0.00 89 1053.5
20260831173436 16 225 17.7 0.0 0.15 0.56 0.00 89 1053.5
20260831173330 16 270 14.5 0.0 0.10 0.51 0.00 89 1053.6
20260831173209 16 315 11.3 0.0 0.10 0.51 0.00 89 1053.5
20260831173057 16 292 1.6 0.0 0.10 0.51 0.00 89 1053.5
20260831172950 16 292 3.2 0.0 0.05 0.46 0.00 89 1053.6
20260831172831 16 270 17.7 0.0 0.05 0.46 0.00 89 1053.5
20260831172724 16 202 14.5 0.0 0.05 0.46 0.00 89 1053.5
20260831172506 16 247 12.9 0.0 0.05 0.46 0.00 88 1053.4
20260831172339 16 247 12.9 0.0 0.05 0.46 0.00 88 1053.5
20260831172234 16 270 24.1 0.0 0.05 0.46 0.00 88 1053.5
20260831172121 16 292 11.3 0.0 0.05 0.46 0.00 88 1053.5
20260831172016 16 247 14.5 0.0 0.05 0.46 0.00 88 1053.4
20260831171911 16 337 14.5 0.0 0.05 0.46 0.00 88 1053.4
20260831171757 16 292 19.3 0.0 0.05 0.46 0.00 88 1053.4
20260831171651 16 270 8.0 0.0 0.05 0.46 0.00 88 1053.4
20260831171546 17 247 14.5 0.0 0.05 0.46 0.00 88 1053.3
20260831171433 17 292 14.5 0.0 0.05 0.46 0.00 89 1053.3
20260831171321 17 270 11.3 0.0 0.05 0.46 0.00 89 1053.3
20260831171214 17 337 11.3 0.0 0.05 0.46 0.00 89 1053.2
20260831171101 17 270 22.5 0.0 0.05 0.46 0.00 89 1053.3
20260831170940 17 270 24.1 0.0 0.05 0.46 0.00 89 1053.3
20260831170828 16 292 17.7 0.0 0.05 0.46 0.00 89 1053.2
20260831170705 16 292 9.7 0.0 0.05 0.46 0.00 90 1053.2
20260831170552 16 292 12.9 0.0 0.05 0.46 0.00 90 1053.2
20260831170423 16 270 16.1 0.0 0.05 0.46 0.00 90 1053.3
20260831170310 16 292 11.3 0.0 0.05 0.46 0.00 90 1053.3
20260831170205 16 247 11.3 0.0 0.05 0.46 0.00 90 1053.2
20260831170043 16 247 6.4 0.0 0.05 0.46 0.00 90 1053.4
20260831165923 16 315 17.7 0.0 0.05 0.46 0.00 90 1053.4
20260831165808 16 270 12.9 0.0 0.05 0.46 0.00 90 1053.3
20260831165639 16 247 22.5 0.0 0.05 0.46 0.00 89 1053.3
20260831165533 16 292 19.3 0.0 0.05 0.46 0.00 89 1053.4
20260831165428 16 270 8.0 0.0 0.05 0.46 0.00 89 1053.2
20260831165322 16 247 11.3 0.0 0.05 0.46 0.00 89 1053.4
20260831165155 16 270 8.0 0.0 0.10 0.46 0.00 89 1053.4
20260831165048 16 315 19.3 0.0 0.10 0.46 0.00 88 1053.4
20260831164935 16 247 17.7 0.0 0.10 0.46 0.00 88 1053.4
20260831164830 16 270 16.1 0.0 0.10 0.46 0.00 88 1053.3
20260831164710 16 270 9.7 0.0 0.20 0.46 0.00 88 1053.4
20260831164606 16 247 11.3 0.0 0.20 0.46 0.00 88 1053.3
20260831164459 16 225 9.7 0.0 0.20 0.46 0.00 87 1053.2
20260831164337 16 247 9.7 0.0 0.25 0.46 0.00 87 1053.3
20260831164218 16 270 12.9 0.0 0.20 0.41 0.00 86 1053.2
20260831164113 17 225 8.0 0.0 0.20 0.41 0.00 86 1053.2
20260831164007 17 292 12.9 0.0 0.20 0.41 0.00 86 1053.1
20260831163852 17 247 27.4 0.0 0.25 0.41 0.00 85 1053.1
20260831163746 17 292 9.7 0.0 0.25 0.41 0.00 84 1053.2
20260831163633 17 292 14.5 0.0 0.25 0.41 0.00 84 1053.0
20260831163528 17 292 19.3 0.0 0.25 0.41 0.00 84 1053.1
20260831163414 17 292 17.7 0.0 0.25 0.41 0.00 83 1053.1
20260831163255 17 292 9.7 0.0 0.25 0.41 0.00 83 1053.0
20260831163148 17 270 11.3 0.0 0.25 0.41 0.00 83 1053.1
20260831163035 17 270 17.7 0.0 0.25 0.41 0.00 83 1053.1
20260831162916 17 270 25.7 0.0 0.25 0.41 0.00 84 1053.0
20260831162801 17 270 12.9 0.0 0.25 0.41 0.00 84 1053.1
20260831162648 17 247 16.1 0.0 0.25 0.41 0.00 85 1053.1
20260831162541 17 292 8.0 0.0 0.25 0.41 0.00 85 1053.0
20260831162420 17 292 8.0 0.0 0.25 0.41 0.00 85 1053.0
20260831162258 17 270 9.7 0.0 0.25 0.41 0.00 85 1053.0
20260831162136 17 247 6.4 0.0 0.25 0.41 0.00 85 1053.0
20260831162030 17 292 12.9 0.0 0.25 0.41 0.00 85 1053.0
20260831161909 17 270 9.7 0.0 0.25 0.41 0.00 86 1053.0
20260831161803 17 247 8.0 0.0 0.25 0.41 0.00 86 1053.0
20260831161658 17 292 14.5 0.0 0.25 0.41 0.00 86 1053.0
20260831161552 17 270 17.7 0.0 0.25 0.41 0.00 86 1053.0
20260831161437 17 292 12.9 0.0 0.25 0.41 0.00 86 1053.0
20260831161326 17 270 22.5 0.0 0.25 0.41 0.00 86 1053.0
20260831161209 17 270 17.7 0.0 0.25 0.41 0.00 86 1053.0
20260831161059 17 270 24.1 0.0 0.25 0.41 0.00 86 1053.0
20260831160952 17 292 19.3 0.0 0.25 0.41 0.00 86 1052.9
20260831160838 17 247 17.7 0.0 0.25 0.41 0.00 87 1053.0
20260831160725 17 225 12.9 0.0 0.25 0.41 0.00 87 1053.0
20260831160620 17 247 6.4 0.0 0.25 0.41 0.00 87 1052.9
20260831160509 17 292 11.3 0.0 0.25 0.41 0.00 87 1052.9
20260831160402 17 315 16.1 0.0 0.25 0.41 0.00 87 1052.9
20260831160240 16 292 16.1 0.0 0.25 0.41 0.00 87 1052.9
20260831160128 16 270 14.5 0.0 0.25 0.41 0.00 87 1053.0
20260831160014 16 292 14.5 0.0 0.25 0.41 0.00 87 1052.9
20260831155853 16 247 9.7 0.0 0.25 0.41 0.00 87 1052.9
20260831155740 16 270 24.1 0.0 0.25 0.41 0.00 87 1052.8
20260831155626 16 315 4.8 0.0 0.25 0.41 0.00 86 1052.8
20260831155515 16 292 4.8 0.0 0.25 0.41 0.00 85 1052.9
20260831155408 16 292 14.5 0.0 0.25 0.41 0.00 85 1052.9
20260831155256 16 225 6.4 0.0 0.25 0.41 0.00 85 1052.9
20260831155142 16 247 8.0 0.0 0.20 0.36 0.00 84 1052.9
20260831155029 17 270 6.4 0.0 0.15 0.30 0.00 83 1052.9
20260831154915 17 270 8.0 0.0 0.15 0.30 0.00 82 1052.9
20260831154802 17 270 14.5 0.0 0.10 0.25 0.00 82 1052.9
20260831154641 17 270 14.5 0.0 0.10 0.25 0.00 82 1053.0
20260831154528 17 247 12.9 0.0 0.05 0.20 0.00 81 1052.9
20260831154424 17 247 4.8 0.0 0.05 0.20 0.00 81 1052.8
20260831154318 18 270 6.4 0.0 0.00 0.15 0.00 81 1052.7
20260831154213 17 225 0.0 0.0 0.00 0.15 0.00 81 1052.9
20260831154108 17 0 6.4 0.0 0.00 0.15 0.00 81 1052.7
20260831153938 17 247 8.0 0.0 0.00 0.15 0.00 81 1052.8
20260831153825 17 315 16.1 0.0 0.00 0.15 0.00 81 1052.6
20260831153720 17 292 9.7 0.0 0.00 0.15 0.00 81 1052.7
20260831153607 17 270 19.3 0.0 0.00 0.15 0.00 81 1052.7
20260831153446 17 247 22.5 0.0 0.00 0.15 0.00 81 1052.6
20260831153333 17 225 14.5 0.0 0.00 0.15 0.00 81 1052.5
20260831153212 17 270 9.7 0.0 0.00 0.15 0.00 81 1052.8
20260831153058 17 270 14.5 0.0 0.00 0.15 0.00 80 1052.6
20260831152945 17 292 0.0 0.0 0.00 0.15 0.00 80 1052.6
20260831152840 17 292 12.9 0.0 0.00 0.15 0.00 79 1052.7
20260831152735 17 135 0.0 0.0 0.00 0.15 0.00 79 1052.6
20260831152629 17 315 6.4 0.0 0.00 0.15 0.00 79 1052.5
20260831152522 17 292 4.8 0.0 0.00 0.15 0.00 79 1052.6
20260831152352 17 180 3.2 0.0 0.00 0.15 0.00 79 1052.6
20260831152239 17 247 14.5 0.0 0.00 0.15 0.00 78 1052.6
20260831152119 17 315 9.7 0.0 0.00 0.15 0.00 78 1052.4
20260831152004 17 270 6.4 0.0 0.00 0.15 0.00 78 1052.4
20260831151853 17 247 16.1 0.0 0.00 0.15 0.00 77 1052.6
20260831151738 17 270 9.7 0.0 0.00 0.15 0.00 76 1052.5
20260831151633 17 247 9.7 0.0 0.00 0.15 0.00 75 1052.5
20260831151512 17 225 14.5 0.0 0.00 0.15 0.00 74 1052.5
20260831151359 17 247 12.9 0.0 0.00 0.15 0.00 73 1052.5
20260831151245 17 247 12.9 0.0 0.00 0.15 0.00 73 1052.6
20260831151126 17 292 11.3 0.0 0.00 0.15 0.00 73 1052.7
20260831151022 18 225 14.5 0.0 0.00 0.15 0.00 73 1052.6
20260831150914 18 247 20.9 0.0 0.00 0.15 0.00 72 1052.6
20260831150800 18 247 24.1 0.0 0.00 0.15 0.00 72 1052.4
20260831150655 18 292 14.5 0.0 0.00 0.15 0.00 72 1052.5
20260831150541 18 270 9.7 0.0 0.00 0.15 0.00 71 1052.4
20260831150429 18 270 9.7 0.0 0.00 0.15 0.00 70 1052.5
20260831150315 19 247 17.7 0.0 0.00 0.15 0.00 68 1052.5
20260831150203 19 292 14.5 0.0 0.00 0.15 0.00 68 1052.5
20260831150057 19 247 12.9 0.0 0.00 0.15 0.00 69 1052.3
20260831145944 20 247 17.7 0.0 0.00 0.15 0.00 70 1052.3
20260831145834 20 270 9.7 0.0 0.00 0.15 0.00 70 1052.4
20260831145719 20 337 16.1 0.0 0.00 0.15 0.00 70 1052.3
20260831145613 20 292 9.7 0.0 0.00 0.15 0.00 70 1052.4
20260831145459 20 247 9.7 0.0 0.00 0.15 0.00 69 1052.3
20260831145339 20 270 9.7 0.0 0.00 0.15 0.00 69 1052.3
20260831145225 20 315 12.9 0.0 0.00 0.15 0.00 69 1052.3
20260831145106 20 337 16.1 0.0 0.00 0.15 0.00 69 1052.3
20260831144958 20 247 24.1 0.0 0.00 0.15 0.00 69 1052.4
20260831144839 20 270 14.5 0.0 0.00 0.15 0.00 69 1052.4
20260831144734 20 247 17.7 0.0 0.00 0.15 0.00 69 1052.3
20260831144620 20 270 6.4 0.0 0.00 0.15 0.00 69 1052.2
20260831144515 20 270 11.3 0.0 0.00 0.15 0.00 68 1052.2
20260831144353 20 315 4.8 0.0 0.00 0.15 0.00 68 1052.2
20260831144243 20 292 17.7 0.0 0.00 0.15 0.00 68 1052.2
20260831144136 20 270 20.9 0.0 0.00 0.15 0.00 68 1052.1
20260831144031 20 292 8.0 0.0 0.00 0.15 0.00 69 1052.3
20260831143918 20 270 9.7 0.0 0.00 0.15 0.00 69 1052.2
20260831143812 20 270 6.4 0.0 0.00 0.15 0.00 69 1052.2
20260831143651 20 337 6.4 0.0 0.00 0.15 0.00 69 1052.2
20260831143521 20 270 12.9 0.0 0.00 0.15 0.00 69 1052.1
20260831143408 20 270 20.9 0.0 0.00 0.15 0.00 70 1052.1
20260831143248 20 247 8.0 0.0 0.00 0.15 0.00 69 1052.1
20260831143136 20 270 9.7 0.0 0.00 0.15 0.00 69 1052.1
20260831143022 20 247 9.7 0.0 0.00 0.15 0.00 69 1052.0
20260831142917 20 247 8.0 0.0 0.00 0.15 0.00 68 1052.1
20260831142811 20 247 20.9 0.0 0.00 0.15 0.00 69 1052.1
20260831142700 20 270 20.9 0.0 0.00 0.15 0.00 69 1052.1
20260831142555 20 270 11.3 0.0 0.00 0.15 0.00 69 1052.0
20260831142448 20 270 8.0 0.0 0.00 0.15 0.00 70 1052.0
20260831142335 20 270 9.7 0.0 0.00 0.15 0.00 69 1052.1
20260831142230 20 225 9.7 0.0 0.00 0.15 0.00 69 1052.0
20260831142109 20 270 0.0 0.0 0.00 0.15 0.00 69 1052.0
20260831141955 20 292 9.7 0.0 0.00 0.15 0.00 68 1052.1
20260831141843 20 315 24.1 0.0 0.00 0.15 0.00 67 1052.1
20260831141737 20 270 16.1 0.0 0.00 0.15 0.00 67 1052.1
20260831141615 21 247 12.9 0.0 0.00 0.15 0.00 67 1052.1
20260831141455 21 270 17.7 0.0 0.00 0.15 0.00 68 1052.0